,,Stat6,,Stat2,,Stat8,,Stat9,,Stat10,,Wind1,,Wind1,
time,status,PA1M_AVG,status,PR1M_SUM,status,RH1M_AVG,status,SR1M_AVG,status,TA1M_AVG,status,W1dAve1m,status,W1sAve1m,
2007-01-12, 07:00:02,VALID,918.484,VALID,0,VALID,100,VALID,0.0339617,VALID,19.4082,VALID,254,VALID,0,
2007-01-12, 07:01:00,VALID,918.466,VALID,0,VALID,100,VALID,0.0339617,VALID,19.4015,VALID,254,VALID,0,
2007-01-12, 07:02:00,VALID,918.454,VALID,0,VALID,100,VALID,0.0169808,VALID,19.4179,VALID,254,VALID,0,
2007-01-12, 07:03:01,VALID,918.431,VALID,0,VALID,100,VALID,0,VALID,19.4115,VALID,254,VALID,0,
2007-01-12, 07:04:00,VALID,918.408,VALID,0,VALID,100,VALID,0,VALID,19.4214,VALID,254,VALID,0,
2007-01-12, 07:05:00,VALID,918.376,VALID,0,VALID,100,VALID,0,VALID,19.4318,VALID,254,VALID,0,
2007-01-12, 07:06:00,VALID,918.35,VALID,0,VALID,100,VALID,0.0169808,VALID,19.4149,VALID,254,VALID,0,
2007-01-12, 07:07:00,VALID,918.33,VALID,0,VALID,100,VALID,0.0339617,VALID,19.4152,VALID,254,VALID,0,
2007-01-12, 07:08:00,VALID,918.307,VALID,0,VALID,100,VALID,0,VALID,19.4082,VALID,254,VALID,0,
2007-01-12, 07:09:00,VALID,918.299,VALID,0,VALID,100,VALID,-0.0339617,VALID,19.409,VALID,254,VALID,0,
2007-01-12, 07:10:00,VALID,918.276,VALID,0,VALID,100,VALID,-0.0169808,VALID,19.4058,VALID,254,VALID,0,
2007-01-12, 07:11:00,VALID,918.259,VALID,0,VALID,100,VALID,-0.0339617,VALID,19.4018,VALID,254,VALID,0,
2007-01-12, 07:12:00,VALID,918.254,VALID,0,VALID,100,VALID,0,VALID,19.399,VALID,254,VALID,0,
2007-01-12, 07:13:00,VALID,918.237,VALID,0,VALID,100,VALID,0,VALID,19.3866,VALID,254,VALID,0,
2007-01-12, 07:14:01,VALID,918.227,VALID,0,VALID,100,VALID,-0.0509425,VALID,19.3737,VALID,254,VALID,0,
2007-01-12, 07:15:00,VALID,918.216,VALID,0,VALID,100,VALID,0,VALID,19.3474,VALID,254,VALID,0.0893895,
2007-01-12, 07:16:00,VALID,918.208,VALID,0,VALID,100,VALID,-0.0169808,VALID,19.3476,VALID,254,VALID,0,
2007-01-12, 07:17:00,VALID,918.206,VALID,0,VALID,100,VALID,-0.0679233,VALID,19.341,VALID,254,VALID,0,
2007-01-12, 07:18:00,VALID,918.208,VALID,0,VALID,100,VALID,-0.0339617,VALID,19.3476,VALID,254,VALID,0,
2007-01-12, 07:19:00,VALID,918.205,VALID,0,VALID,100,VALID,0,VALID,19.3573,VALID,254,VALID,0,
2007-01-12, 07:20:01,VALID,918.204,VALID,0,VALID,100,VALID,-0.0169808,VALID,19.3412,VALID,254,VALID,0.133743,
2007-01-12, 07:21:00,VALID,918.223,VALID,0,VALID,100,VALID,-0.0169808,VALID,19.3412,VALID,254,VALID,0.00571646,
2007-01-12, 07:22:00,VALID,918.205,VALID,0,VALID,100,VALID,0,VALID,19.3603,VALID,254,VALID,0,
2007-01-12, 07:23:00,VALID,918.201,VALID,0,VALID,100,VALID,0,VALID,19.3799,VALID,254,VALID,0,
2007-01-12, 07:24:00,VALID,918.205,VALID,0,VALID,100,VALID,-0.0169808,VALID,19.3598,VALID,254,VALID,0.217226,
2007-01-12, 07:25:01,VALID,918.202,VALID,0,VALID,100,VALID,0.0169808,VALID,19.3315,VALID,254,VALID,0.29633,
2007-01-12, 07:26:00,VALID,918.196,VALID,0,VALID,100,VALID,-0.0169808,VALID,19.3184,VALID,260,VALID,0.519717,
2007-01-12, 07:27:00,VALID,918.197,VALID,0,VALID,100,VALID,-0.0169808,VALID,19.2833,VALID,317,VALID,0.71875,
2007-01-12, 07:28:01,VALID,918.19,VALID,0,VALID,100,VALID,0.0169808,VALID,19.2377,VALID,320,VALID,0.696289,
2007-01-12, 07:29:01,VALID,918.19,VALID,0,VALID,100,VALID,-0.0169808,VALID,19.2349,VALID,323,VALID,0.333676,
2007-01-12, 07:30:00,VALID,918.177,VALID,0,VALID,100,VALID,0,VALID,19.2081,VALID,323,VALID,0.335756,
2007-01-12, 07:31:00,VALID,918.16,VALID,0,VALID,100,VALID,0,VALID,19.1987,VALID,323,VALID,0.326736,
2007-01-12, 07:32:00,VALID,918.144,VALID,0,VALID,100,VALID,0,VALID,19.2051,VALID,323,VALID,0.229288,
2007-01-12, 07:33:01,VALID,918.118,VALID,0,VALID,100,VALID,0,VALID,19.2185,VALID,323,VALID,0.171684,
2007-01-12, 07:34:00,VALID,918.089,VALID,0,VALID,100,VALID,0,VALID,19.2056,VALID,323,VALID,0.160056,
2007-01-12, 07:35:00,VALID,918.069,VALID,0,VALID,100,VALID,0,VALID,19.2022,VALID,323,VALID,0.0538194,
2007-01-12, 07:36:00,VALID,918.049,VALID,0,VALID,100,VALID,0,VALID,19.2089,VALID,323,VALID,0,
2007-01-12, 07:37:00,VALID,918.036,VALID,0,VALID,100,VALID,-0.0169808,VALID,19.1952,VALID,323,VALID,0,
2007-01-12, 07:38:00,VALID,918.03,VALID,0,VALID,100,VALID,0.0169808,VALID,19.2022,VALID,323,VALID,0,
2007-01-12, 07:39:00,VALID,918.007,VALID,0,VALID,100,VALID,0.0169808,VALID,19.2051,VALID,323,VALID,0,
2007-01-12, 07:40:00,VALID,917.997,VALID,0,VALID,100,VALID,0,VALID,19.2213,VALID,323,VALID,0,
2007-01-12, 07:41:00,VALID,917.975,VALID,0,VALID,100,VALID,0,VALID,19.2181,VALID,323,VALID,0,
2007-01-12, 07:42:01,VALID,917.953,VALID,0,VALID,100,VALID,-0.0169808,VALID,19.2183,VALID,323,VALID,0.22619,
2007-01-12, 07:43:00,VALID,917.936,VALID,0,VALID,100,VALID,0.0169808,VALID,19.2019,VALID,323,VALID,0.439258,
2007-01-12, 07:44:00,VALID,917.912,VALID,0,VALID,100,VALID,-0.0169808,VALID,19.1957,VALID,323,VALID,0.403232,
2007-01-12, 07:45:00,VALID,917.893,VALID,0,VALID,100,VALID,-0.0169808,VALID,19.2059,VALID,323,VALID,0.223214,
2007-01-12, 07:46:01,VALID,917.878,VALID,0,VALID,100,VALID,0,VALID,19.1897,VALID,323,VALID,0.316315,
2007-01-12, 07:47:00,VALID,917.866,VALID,0,VALID,100,VALID,0.0169808,VALID,19.1604,VALID,323,VALID,0.360618,
2007-01-12, 07:48:00,VALID,917.854,VALID,0,VALID,100,VALID,0,VALID,19.1346,VALID,323,VALID,0.360119,
2007-01-12, 07:49:00,VALID,917.849,VALID,0,VALID,100,VALID,-0.0169808,VALID,19.1349,VALID,323,VALID,0.46317,
2007-01-12, 07:50:01,VALID,917.84,VALID,0,VALID,100,VALID,-0.0169808,VALID,19.1346,VALID,325,VALID,0.571221,
2007-01-12, 07:51:00,VALID,917.835,VALID,0,VALID,100,VALID,-0.0169808,VALID,19.1247,VALID,332,VALID,0.637784,
2007-01-12, 07:52:01,VALID,917.833,VALID,0,VALID,100,VALID,0,VALID,19.151,VALID,341,VALID,0.641387,
2007-01-12, 07:53:00,VALID,917.829,VALID,0,VALID,100,VALID,-0.0169808,VALID,19.1445,VALID,341,VALID,0.393173,
2007-01-12, 07:54:00,VALID,917.819,VALID,0,VALID,100,VALID,0,VALID,19.1411,VALID,341,VALID,0.383185,
2007-01-12, 07:55:01,VALID,917.798,VALID,0,VALID,100,VALID,0,VALID,19.1351,VALID,341,VALID,0.32309,
2007-01-12, 07:56:00,VALID,917.79,VALID,0,VALID,100,VALID,0,VALID,19.1254,VALID,341,VALID,0.351004,
2007-01-12, 07:57:00,VALID,917.772,VALID,0,VALID,100,VALID,-0.0169808,VALID,19.1222,VALID,341,VALID,0.362043,
2007-01-12, 07:58:00,VALID,917.762,VALID,0,VALID,100,VALID,0,VALID,19.1222,VALID,343,VALID,0.471484,
2007-01-12, 07:59:00,VALID,917.748,VALID,0,VALID,100,VALID,0,VALID,19.1284,VALID,343,VALID,0.381076,
2007-01-12, 08:00:00,VALID,917.74,VALID,0,VALID,100,VALID,0,VALID,19.1349,VALID,343,VALID,0.302572,
2007-01-12, 08:01:00,VALID,917.735,VALID,0,VALID,100,VALID,-0.0169808,VALID,19.1445,VALID,343,VALID,0.358789,
2007-01-12, 08:02:00,VALID,917.73,VALID,0,VALID,100,VALID,0,VALID,19.1247,VALID,343,VALID,0.409028,
2007-01-12, 08:03:00,VALID,917.724,VALID,0,VALID,100,VALID,0,VALID,19.1314,VALID,357,VALID,0.703488,
2007-01-12, 08:04:00,VALID,917.728,VALID,0,VALID,100,VALID,0.0169808,VALID,19.1344,VALID,15,VALID,0.668899,
2007-01-12, 08:05:00,VALID,917.719,VALID,0,VALID,100,VALID,-0.0169808,VALID,19.1316,VALID,41,VALID,0.864901,
2007-01-12, 08:06:00,VALID,917.715,VALID,0,VALID,100,VALID,0,VALID,19.1319,VALID,52,VALID,0.687137,
2007-01-12, 08:07:01,VALID,917.702,VALID,0,VALID,100,VALID,0,VALID,19.1279,VALID,52,VALID,0.700267,
2007-01-12, 08:08:01,VALID,917.691,VALID,0,VALID,100,VALID,0,VALID,19.1346,VALID,52,VALID,0.626065,
2007-01-12, 08:09:00,VALID,917.683,VALID,0,VALID,100,VALID,-0.0169808,VALID,19.1282,VALID,52,VALID,0.553961,
2007-01-12, 08:10:01,VALID,917.668,VALID,0,VALID,100,VALID,0,VALID,19.1279,VALID,49,VALID,0.664063,
2007-01-12, 08:11:00,VALID,917.657,VALID,0,VALID,100,VALID,-0.0169808,VALID,19.1319,VALID,47,VALID,0.555051,
2007-01-12, 08:12:01,VALID,917.642,VALID,0,VALID,100,VALID,-0.0169808,VALID,19.1319,VALID,46,VALID,0.887718,
2007-01-12, 08:13:00,VALID,917.627,VALID,0,VALID,100,VALID,0,VALID,19.1187,VALID,48,VALID,0.662109,
2007-01-12, 08:14:01,VALID,917.607,VALID,0,VALID,100,VALID,-0.0509425,VALID,19.1286,VALID,52,VALID,0.619444,
2007-01-12, 08:15:00,VALID,917.589,VALID,0,VALID,100,VALID,-0.0339617,VALID,19.1284,VALID,54,VALID,0.627477,
2007-01-12, 08:16:00,VALID,917.566,VALID,0,VALID,100,VALID,-0.0339617,VALID,19.1286,VALID,54,VALID,0.426829,
2007-01-12, 08:17:00,VALID,917.547,VALID,0,VALID,100,VALID,0.0169808,VALID,19.1418,VALID,54,VALID,0.275484,
2007-01-12, 08:18:01,VALID,917.546,VALID,0,VALID,100,VALID,-0.0339617,VALID,19.1118,VALID,34,VALID,0.672602,
2007-01-12, 08:19:00,VALID,917.536,VALID,0,VALID,100,VALID,-0.0169808,VALID,19.109,VALID,32,VALID,0.342478,
2007-01-12, 08:20:00,VALID,917.526,VALID,0,VALID,100,VALID,-0.0509425,VALID,19.1031,VALID,32,VALID,0.458147,
2007-01-12, 08:21:00,VALID,917.52,VALID,0,VALID,100,VALID,-0.0339617,VALID,19.0991,VALID,48,VALID,0.37862,
2007-01-12, 08:22:01,VALID,917.51,VALID,0,VALID,100,VALID,-0.0169808,VALID,19.1162,VALID,54,VALID,0.0497332,
2007-01-12, 08:23:00,VALID,917.498,VALID,0,VALID,100,VALID,0,VALID,19.1058,VALID,53,VALID,0.0422585,
2007-01-12, 08:24:01,VALID,917.48,VALID,0,VALID,100,VALID,-0.0169808,VALID,19.1127,VALID,19,VALID,0.382254,
2007-01-12, 08:25:00,VALID,917.466,VALID,0,VALID,100,VALID,-0.0169808,VALID,19.1157,VALID,354,VALID,0.543423,
2007-01-12, 08:26:00,VALID,917.449,VALID,0,VALID,100,VALID,-0.0339617,VALID,19.0959,VALID,342,VALID,0.640244,
2007-01-12, 08:27:00,VALID,917.431,VALID,0,VALID,100,VALID,-0.0509425,VALID,19.0996,VALID,321,VALID,0.715661,
2007-01-12, 08:28:00,VALID,917.418,VALID,0,VALID,100,VALID,-0.0169808,VALID,19.0832,VALID,316,VALID,0.476563,
2007-01-12, 08:29:00,VALID,917.408,VALID,0,VALID,100,VALID,0,VALID,19.0768,VALID,313,VALID,0.589504,
2007-01-12, 08:30:01,VALID,917.393,VALID,0,VALID,100,VALID,-0.0339617,VALID,19.0929,VALID,309,VALID,0.770833,
2007-01-12, 08:31:00,VALID,917.38,VALID,0,VALID,100,VALID,0,VALID,19.08,VALID,304,VALID,0.909157,
2007-01-12, 08:32:00,VALID,917.36,VALID,0,VALID,100,VALID,0,VALID,19.0537,VALID,303,VALID,0.87609,
2007-01-12, 08:33:01,VALID,917.341,VALID,0,VALID,100,VALID,0,VALID,19.0574,VALID,304,VALID,0.588368,
2007-01-12, 08:34:00,VALID,917.338,VALID,0,VALID,100,VALID,-0.0169808,VALID,19.0549,VALID,304,VALID,0.532885,
2007-01-12, 08:35:00,VALID,917.327,VALID,0,VALID,100,VALID,-0.0169808,VALID,19.0348,VALID,307,VALID,0.725675,
2007-01-12, 08:36:01,VALID,917.328,VALID,0,VALID,100,VALID,-0.0169808,VALID,19.0251,VALID,309,VALID,0.717076,
2007-01-12, 08:37:00,VALID,917.316,VALID,0,VALID,100,VALID,-0.0679233,VALID,19.0092,VALID,309,VALID,0.370346,
2007-01-12, 08:38:00,VALID,917.301,VALID,0,VALID,100,VALID,-4.62593e-018,VALID,19.012,VALID,309,VALID,0.227628,
2007-01-12, 08:39:01,VALID,917.285,VALID,0,VALID,100,VALID,0.0509425,VALID,19.0013,VALID,309,VALID,0.110328,
2007-01-12, 08:40:00,VALID,917.276,VALID,0,VALID,100,VALID,0.0849042,VALID,18.9951,VALID,309,VALID,0.0909598,
2007-01-12, 08:41:01,VALID,917.25,VALID,0,VALID,100,VALID,0.0679233,VALID,18.979,VALID,309,VALID,0,
2007-01-12, 08:42:01,VALID,917.232,VALID,0,VALID,100,VALID,0.0849042,VALID,18.9882,VALID,351,VALID,0.354911,
2007-01-12, 08:43:00,VALID,917.212,VALID,0,VALID,100,VALID,0.0849042,VALID,19.0108,VALID,28,VALID,0.443105,
2007-01-12, 08:44:00,VALID,917.201,VALID,0,VALID,100,VALID,0.0849042,VALID,19.0338,VALID,28,VALID,0.552557,
2007-01-12, 08:45:01,VALID,917.192,VALID,0,VALID,100,VALID,0.0679233,VALID,19.0401,VALID,35,VALID,0.761523,
2007-01-12, 08:46:01,VALID,917.176,VALID,0,VALID,100,VALID,0.101885,VALID,19.0495,VALID,35,VALID,0.703303,
2007-01-12, 08:47:00,VALID,917.157,VALID,0,VALID,100,VALID,0.0509425,VALID,19.0664,VALID,19,VALID,0.814918,
2007-01-12, 08:48:01,VALID,917.15,VALID,0,VALID,100,VALID,0.0679233,VALID,19.0629,VALID,25,VALID,0.76399,
2007-01-12, 08:49:01,VALID,917.165,VALID,0,VALID,100,VALID,0.0849042,VALID,19.0661,VALID,11,VALID,0.85902,
2007-01-12, 08:50:01,VALID,917.154,VALID,0,VALID,100,VALID,0.0849042,VALID,19.0656,VALID,9,VALID,0.891513,
2007-01-12, 08:51:00,VALID,917.154,VALID,0,VALID,100,VALID,0.0509425,VALID,19.0696,VALID,13,VALID,0.920058,
2007-01-12, 08:52:01,VALID,917.154,VALID,0,VALID,100,VALID,0.0849042,VALID,19.0793,VALID,354,VALID,0.945135,
2007-01-12, 08:53:01,VALID,917.157,VALID,0,VALID,100,VALID,0.0509425,VALID,19.0698,VALID,355,VALID,0.864784,
2007-01-12, 08:54:01,VALID,917.155,VALID,0,VALID,100,VALID,-0.0679233,VALID,19.0676,VALID,359,VALID,0.408156,
2007-01-12, 08:55:01,VALID,917.135,VALID,0,VALID,100,VALID,-0.0679233,VALID,19.0574,VALID,357,VALID,0.582698,
2007-01-12, 08:56:00,VALID,917.121,VALID,0,VALID,100,VALID,0,VALID,19.071,VALID,357,VALID,0.631669,
2007-01-12, 08:57:01,VALID,917.114,VALID,0,VALID,100,VALID,-0.0169808,VALID,19.0768,VALID,358,VALID,0.375762,
